| time (UTC) | temp C | wind direction | speed KPH | gust KPH | rain 1hr cm | rain 24hr cm | rain mn cm | humidity % | barometer mb |
| 20260903121503 | 13 | 232 | 0.0 | 3.2 | 0.00 | 0.00 | 0.00 | 30 | 1021.0 |
| 20260903121004 | 13 | 232 | 0.0 | 0.0 | 0.00 | 0.00 | 0.00 | 30 | 1021.0 |
| 20260903120503 | 13 | 232 | 0.0 | 0.0 | 0.00 | 0.00 | 0.00 | 30 | 1020.9 |
| 20260903115503 | 13 | 232 | 0.0 | 1.6 | 0.00 | 0.00 | 0.00 | 30 | 1020.9 |
| 20260903115003 | 13 | 234 | 0.0 | 0.0 | 0.00 | 0.00 | 0.00 | 31 | 1021.0 |
| 20260903114004 | 13 | 232 | 0.0 | 0.0 | 0.00 | 0.00 | 0.00 | 30 | 1021.1 |
| 20260903113503 | 13 | 232 | 0.0 | 0.0 | 0.00 | 0.00 | 0.00 | 30 | 1021.0 |
| 20260903112504 | 13 | 232 | 0.0 | 0.0 | 0.00 | 0.00 | 0.00 | 30 | 1021.0 |
| 20260903112003 | 13 | 232 | 0.0 | 0.0 | 0.00 | 0.00 | 0.00 | 30 | 1021.0 |
| 20260903111503 | 13 | 232 | 0.0 | 0.0 | 0.00 | 0.00 | 0.00 | 30 | 1021.0 |
| 20260903111004 | 13 | 232 | 0.0 | 1.6 | 0.00 | 0.00 | 0.00 | 31 | 1021.0 |
| 20260903110503 | 13 | 232 | 0.0 | 0.0 | 0.00 | 0.00 | 0.00 | 31 | 1020.9 |
| 20260903110003 | 13 | 232 | 0.0 | 0.0 | 0.00 | 0.00 | 0.00 | 31 | 1020.9 |
| 20260903105003 | 14 | 232 | 0.0 | 0.0 | 0.00 | 0.00 | 0.00 | 31 | 1020.9 |
| 20260903104503 | 15 | 232 | 0.0 | 1.6 | 0.00 | 0.00 | 0.00 | 32 | 1020.9 |
| 20260903103503 | 13 | 232 | 0.0 | 0.0 | 0.00 | 0.00 | 0.00 | 34 | 1020.9 |
| 20260903103003 | 13 | 232 | 0.0 | 1.6 | 0.00 | 0.00 | 0.00 | 34 | 1021.1 |
| 20260903102503 | 13 | 232 | 0.0 | 1.6 | 0.00 | 0.00 | 0.00 | 34 | 1021.1 |
| 20260903102003 | 13 | 232 | 0.0 | 3.2 | 0.00 | 0.00 | 0.00 | 32 | 1021.1 |
| 20260903101004 | 15 | 232 | 0.0 | 0.0 | 0.00 | 0.00 | 0.00 | 31 | 1021.2 |
| 20260903100503 | 15 | 232 | 0.0 | 0.0 | 0.00 | 0.00 | 0.00 | 30 | 1021.2 |
| 20260903095503 | 15 | 234 | 0.0 | 0.0 | 0.00 | 0.00 | 0.00 | 32 | 1021.3 |
| 20260903095003 | 15 | 234 | 0.0 | 0.0 | 0.00 | 0.00 | 0.00 | 33 | 1021.3 |
| 20260903094502 | 15 | 234 | 0.0 | 0.0 | 0.00 | 0.00 | 0.00 | 33 | 1021.3 |
| 20260903094003 | 15 | 234 | 0.0 | 0.0 | 0.00 | 0.00 | 0.00 | 33 | 1021.2 |
| 20260903093503 | 15 | 234 | 0.0 | 0.0 | 0.00 | 0.00 | 0.00 | 32 | 1021.3 |
| 20260903093004 | 16 | 234 | 0.0 | 3.2 | 0.00 | 0.00 | 0.00 | 32 | 1021.3 |
| 20260903092503 | 16 | 234 | 0.0 | 1.6 | 0.00 | 0.00 | 0.00 | 32 | 1021.2 |
| 20260903092003 | 16 | 234 | 0.0 | 0.0 | 0.00 | 0.00 | 0.00 | 31 | 1021.3 |
| 20260903091504 | 16 | 234 | 0.0 | 3.2 | 0.00 | 0.00 | 0.00 | 32 | 1021.3 |
| 20260903091003 | 16 | 234 | 0.0 | 3.2 | 0.00 | 0.00 | 0.00 | 31 | 1021.4 |
| 20260903090003 | 17 | 233 | 1.6 | 4.8 | 0.00 | 0.00 | 0.00 | 28 | 1021.5 |
| 20260903085503 | 17 | 232 | 0.0 | 1.6 | 0.00 | 0.00 | 0.00 | 29 | 1021.5 |
| 20260903084503 | 16 | 240 | 0.0 | 0.0 | 0.00 | 0.00 | 0.00 | 31 | 1021.6 |
| 20260903084012 | 16 | 242 | 0.0 | 4.8 | 0.00 | 0.00 | 0.00 | 31 | 1021.5 |
| 20260903082004 | 16 | 238 | 0.0 | 3.2 | 0.00 | 0.00 | 0.00 | 29 | 1021.7 |
| 20260903081003 | 16 | 243 | 3.2 | 4.8 | 0.00 | 0.00 | 0.00 | 30 | 1021.7 |
| 20260903080504 | 17 | 249 | 1.6 | 3.2 | 0.00 | 0.00 | 0.00 | 31 | 1021.7 |
| 20260903075503 | 17 | 236 | 3.2 | 4.8 | 0.00 | 0.00 | 0.00 | 32 | 1021.8 |
| 20260903074503 | 17 | 213 | 1.6 | 8.0 | 0.00 | 0.00 | 0.00 | 30 | 1021.7 |
| 20260903074004 | 17 | 203 | 6.4 | 9.7 | 0.00 | 0.00 | 0.00 | 29 | 1021.7 |
| 20260903073503 | 17 | 207 | 8.0 | 9.7 | 0.00 | 0.00 | 0.00 | 30 | 1021.8 |
| 20260903073003 | 17 | 211 | 1.6 | 4.8 | 0.00 | 0.00 | 0.00 | 33 | 1021.8 |
| 20260903072503 | 16 | 217 | 1.6 | 4.8 | 0.00 | 0.00 | 0.00 | 34 | 1021.7 |
| 20260903072003 | 16 | 223 | 0.0 | 1.6 | 0.00 | 0.00 | 0.00 | 33 | 1021.7 |
| 20260903071503 | 16 | 223 | 0.0 | 3.2 | 0.00 | 0.00 | 0.00 | 33 | 1021.8 |
| 20260903071004 | 16 | 223 | 0.0 | 1.6 | 0.00 | 0.00 | 0.00 | 34 | 1021.8 |
| 20260903070503 | 16 | 223 | 0.0 | 1.6 | 0.00 | 0.00 | 0.00 | 33 | 1021.8 |
| 20260903070003 | 16 | 223 | 0.0 | 4.8 | 0.00 | 0.00 | 0.00 | 33 | 1021.9 |
| 20260903065503 | 17 | 223 | 1.6 | 4.8 | 0.00 | 0.00 | 0.00 | 33 | 1021.9 |
| 20260903065003 | 17 | 241 | 0.0 | 1.6 | 0.00 | 0.00 | 0.00 | 34 | 1021.9 |
| 20260903064503 | 17 | 241 | 0.0 | 1.6 | 0.00 | 0.00 | 0.00 | 34 | 1021.9 |
| 20260903063503 | 17 | 295 | 0.0 | 0.0 | 0.00 | 0.00 | 0.00 | 33 | 1022.0 |
| 20260903063003 | 17 | 295 | 0.0 | 0.0 | 0.00 | 0.00 | 0.00 | 34 | 1022.1 |
| 20260903062503 | 17 | 295 | 0.0 | 0.0 | 0.00 | 0.00 | 0.00 | 34 | 1022.1 |
| 20260903062005 | 17 | 295 | 0.0 | 3.2 | 0.00 | 0.00 | 0.00 | 35 | 1022.1 |
| 20260903061004 | 17 | 201 | 0.0 | 3.2 | 0.00 | 0.00 | 0.00 | 35 | 1022.1 |
| 20260903060503 | 17 | 200 | 0.0 | 1.6 | 0.00 | 0.00 | 0.00 | 35 | 1022.2 |
| 20260903060003 | 17 | 194 | 0.0 | 1.6 | 0.00 | 0.00 | 0.00 | 35 | 1022.3 |
| 20260903055503 | 17 | 192 | 0.0 | 0.0 | 0.00 | 0.00 | 0.00 | 34 | 1022.3 |
| 20260903055003 | 17 | 192 | 0.0 | 0.0 | 0.00 | 0.00 | 0.00 | 33 | 1022.3 |
| 20260903053503 | 17 | 192 | 0.0 | 0.0 | 0.00 | 0.00 | 0.00 | 33 | 1022.5 |
| 20260903052529 | 18 | 192 | 1.6 | 3.2 | 0.00 | 0.00 | 0.00 | 33 | 1022.4 |
| 20260903052004 | 18 | 192 | 0.0 | 0.0 | 0.00 | 0.00 | 0.00 | 33 | 1022.4 |
| 20260903051505 | 18 | 192 | 0.0 | 0.0 | 0.00 | 0.00 | 0.00 | 33 | 1022.4 |
| 20260903051003 | 18 | 192 | 0.0 | 0.0 | 0.00 | 0.00 | 0.00 | 33 | 1022.4 |
| 20260903050503 | 18 | 192 | 0.0 | 0.0 | 0.00 | 0.00 | 0.00 | 33 | 1022.4 |
| 20260903050003 | 18 | 192 | 0.0 | 0.0 | 0.00 | 0.00 | 0.00 | 33 | 1022.4 |
| 20260903045504 | 18 | 192 | 0.0 | 0.0 | 0.00 | 0.00 | 0.00 | 32 | 1022.4 |
| 20260903045003 | 19 | 192 | 0.0 | 0.0 | 0.00 | 0.00 | 0.00 | 32 | 1022.4 |
| 20260903044004 | 20 | 192 | 1.6 | 4.8 | 0.00 | 0.00 | 0.00 | 32 | 1022.4 |
| 20260903043503 | 20 | 190 | 1.6 | 4.8 | 0.00 | 0.00 | 0.00 | 32 | 1022.3 |
| 20260903043003 | 20 | 186 | 3.2 | 4.8 | 0.00 | 0.00 | 0.00 | 31 | 1022.3 |
| 20260903042503 | 20 | 186 | 3.2 | 4.8 | 0.00 | 0.00 | 0.00 | 31 | 1022.2 |
| 20260903041003 | 20 | 174 | 0.0 | 3.2 | 0.00 | 0.00 | 0.00 | 31 | 1022.2 |
| 20260903040504 | 20 | 175 | 3.2 | 4.8 | 0.00 | 0.00 | 0.00 | 30 | 1022.0 |
| 20260903040003 | 21 | 179 | 3.2 | 4.8 | 0.00 | 0.00 | 0.00 | 30 | 1022.0 |
| 20260903035503 | 21 | 180 | 4.8 | 4.8 | 0.00 | 0.00 | 0.00 | 30 | 1021.9 |
| 20260903035003 | 21 | 198 | 0.0 | 3.2 | 0.00 | 0.00 | 0.00 | 29 | 1021.9 |
| 20260903034503 | 21 | 198 | 0.0 | 4.8 | 0.00 | 0.00 | 0.00 | 29 | 1021.9 |
| 20260903034003 | 21 | 199 | 3.2 | 4.8 | 0.00 | 0.00 | 0.00 | 29 | 1021.9 |
| 20260903033503 | 22 | 202 | 0.0 | 0.0 | 0.00 | 0.00 | 0.00 | 29 | 1021.9 |
| 20260903032504 | 22 | 204 | 1.6 | 4.8 | 0.00 | 0.00 | 0.00 | 28 | 1021.7 |
| 20260903032003 | 23 | 204 | 6.4 | 11.3 | 0.00 | 0.00 | 0.00 | 28 | 1021.7 |
| 20260903031504 | 23 | 187 | 11.3 | 14.5 | 0.00 | 0.00 | 0.00 | 28 | 1021.5 |
| 20260903031003 | 23 | 189 | 8.0 | 11.3 | 0.00 | 0.00 | 0.00 | 28 | 1021.4 |
| 20260903030503 | 23 | 194 | 8.0 | 12.9 | 0.00 | 0.00 | 0.00 | 28 | 1021.3 |
| 20260903030003 | 23 | 202 | 8.0 | 9.7 | 0.00 | 0.00 | 0.00 | 27 | 1021.5 |
| 20260903025503 | 23 | 203 | 8.0 | 11.3 | 0.00 | 0.00 | 0.00 | 27 | 1021.5 |
| 20260903025010 | 23 | 205 | 9.7 | 11.3 | 0.00 | 0.00 | 0.00 | 27 | 1021.6 |
| 20260903024003 | 24 | 198 | 8.0 | 11.3 | 0.00 | 0.00 | 0.00 | 27 | 1021.4 |
| 20260903022504 | 25 | 186 | 8.0 | 9.7 | 0.00 | 0.00 | 0.00 | 26 | 1021.4 |
| 20260903022011 | 25 | 208 | 4.8 | 8.0 | 0.00 | 0.00 | 0.00 | 25 | 1021.5 |
| 20260903021503 | 25 | 217 | 1.6 | 4.8 | 0.00 | 0.00 | 0.00 | 24 | 1021.4 |
| 20260903021003 | 26 | 209 | 4.8 | 8.0 | 0.00 | 0.00 | 0.00 | 24 | 1021.5 |
| 20260903020503 | 26 | 190 | 6.4 | 14.5 | 0.00 | 0.00 | 0.00 | 24 | 1021.5 |
| 20260903020008 | 26 | 207 | 6.4 | 14.5 | 0.00 | 0.00 | 0.00 | 23 | 1021.5 |
| 20260903015503 | 26 | 202 | 11.3 | 14.5 | 0.00 | 0.00 | 0.00 | 23 | 1021.5 |
| 20260903014504 | 27 | 193 | 8.0 | 19.3 | 0.00 | 0.00 | 0.00 | 22 | 1021.6 |
| 20260903013503 | 27 | 237 | 12.9 | 22.5 | 0.00 | 0.00 | 0.00 | 21 | 1021.5 |
| 20260903013004 | 27 | 229 | 12.9 | 24.1 | 0.00 | 0.00 | 0.00 | 20 | 1021.5 |
| 20260903012503 | 28 | 214 | 12.9 | 24.1 | 0.00 | 0.00 | 0.00 | 20 | 1021.6 |
| 20260903012003 | 28 | 219 | 12.9 | 20.9 | 0.00 | 0.00 | 0.00 | 19 | 1021.4 |
| 20260903011503 | 28 | 216 | 14.5 | 22.5 | 0.00 | 0.00 | 0.00 | 19 | 1021.5 |
| 20260903011003 | 28 | 224 | 14.5 | 20.9 | 0.00 | 0.00 | 0.00 | 18 | 1021.5 |
| 20260903010503 | 28 | 230 | 11.3 | 19.3 | 0.00 | 0.00 | 0.00 | 18 | 1021.4 |
| 20260903005503 | 29 | 213 | 14.5 | 24.1 | 0.00 | 0.00 | 0.00 | 17 | 1021.4 |
| 20260903005005 | 29 | 213 | 14.5 | 25.7 | 0.00 | 0.00 | 0.00 | 17 | 1021.4 |
| 20260903004503 | 29 | 203 | 14.5 | 22.5 | 0.00 | 0.00 | 0.00 | 16 | 1021.4 |
| 20260903004004 | 29 | 214 | 17.7 | 24.1 | 0.00 | 0.00 | 0.00 | 16 | 1021.3 |
| 20260903003503 | 30 | 210 | 16.1 | 22.5 | 0.00 | 0.00 | 0.00 | 15 | 1021.3 |
| 20260903002503 | 30 | 223 | 14.5 | 27.4 | 0.00 | 0.00 | 0.00 | 15 | 1021.3 |
| 20260903001504 | 30 | 212 | 16.1 | 22.5 | 0.00 | 0.00 | 0.00 | 13 | 1021.3 |
| 20260903001003 | 30 | 199 | 20.9 | 27.4 | 0.00 | 0.00 | 0.00 | 13 | 1021.3 |
| 20260903000503 | 31 | 213 | 11.3 | 24.1 | 0.00 | 0.00 | 0.00 | 13 | 1021.3 |
| 20260903000004 | 31 | 216 | 16.1 | 24.1 | 0.00 | 0.00 | 0.00 | 13 | 1021.3 |
| 20260902235503 | 31 | 199 | 11.3 | 19.3 | 0.00 | 0.00 | 0.00 | 13 | 1021.4 |
| 20260902234504 | 31 | 224 | 16.1 | 25.7 | 0.00 | 0.00 | 0.00 | 12 | 1021.4 |
| 20260902234004 | 31 | 219 | 14.5 | 32.2 | 0.00 | 0.00 | 0.00 | 12 | 1021.4 |
| 20260902233503 | 31 | 197 | 14.5 | 20.9 | 0.00 | 0.00 | 0.00 | 12 | 1021.5 |
| 20260902233004 | 31 | 182 | 16.1 | 22.5 | 0.00 | 0.00 | 0.00 | 12 | 1021.4 |
| 20260902232503 | 31 | 206 | 14.5 | 27.4 | 0.00 | 0.00 | 0.00 | 12 | 1021.5 |
| 20260902232004 | 31 | 201 | 14.5 | 22.5 | 0.00 | 0.00 | 0.00 | 12 | 1021.6 |
| 20260902231004 | 31 | 188 | 12.9 | 19.3 | 0.00 | 0.00 | 0.00 | 11 | 1021.6 |
| 20260902230504 | 31 | 211 | 11.3 | 24.1 | 0.00 | 0.00 | 0.00 | 12 | 1021.7 |
| 20260902230003 | 31 | 184 | 14.5 | 25.7 | 0.00 | 0.00 | 0.00 | 11 | 1021.8 |
| 20260902225503 | 31 | 225 | 14.5 | 25.7 | 0.00 | 0.00 | 0.00 | 11 | 1021.7 |
| 20260902225003 | 31 | 188 | 14.5 | 24.1 | 0.00 | 0.00 | 0.00 | 11 | 1021.8 |
| 20260902223003 | 31 | 254 | 8.0 | 19.3 | 0.00 | 0.00 | 0.00 | 10 | 1022.0 |
| 20260902222503 | 31 | 227 | 11.3 | 22.5 | 0.00 | 0.00 | 0.00 | 11 | 1022.0 |
| 20260902221503 | 31 | 226 | 14.5 | 24.1 | 0.00 | 0.00 | 0.00 | 10 | 1022.1 |
| 20260902221003 | 31 | 227 | 14.5 | 25.7 | 0.00 | 0.00 | 0.00 | 10 | 1022.1 |
| 20260902220504 | 31 | 245 | 20.9 | 32.2 | 0.00 | 0.00 | 0.00 | 10 | 1022.3 |
| 20260902215503 | 31 | 239 | 12.9 | 20.9 | 0.00 | 0.00 | 0.00 | 10 | 1022.4 |
| 20260902215004 | 31 | 230 | 20.9 | 29.0 | 0.00 | 0.00 | 0.00 | 9 | 1022.4 |
| 20260902214503 | 31 | 218 | 17.7 | 33.8 | 0.00 | 0.00 | 0.00 | 9 | 1022.3 |
| 20260902214003 | 31 | 246 | 19.3 | 29.0 | 0.00 | 0.00 | 0.00 | 8 | 1022.4 |
| 20260902213504 | 31 | 232 | 20.9 | 32.2 | 0.00 | 0.00 | 0.00 | 6 | 1022.3 |
| 20260902212503 | 31 | 222 | 24.1 | 35.4 | 0.00 | 0.00 | 0.00 | 6 | 1022.3 |
| 20260902211503 | 31 | 234 | 22.5 | 37.0 | 0.00 | 0.00 | 0.00 | 6 | 1022.4 |
| 20260902211004 | 31 | 230 | 19.3 | 32.2 | 0.00 | 0.00 | 0.00 | 6 | 1022.3 |
| 20260902210504 | 31 | 209 | 24.1 | 40.2 | 0.00 | 0.00 | 0.00 | 6 | 1022.5 |
| 20260902205503 | 31 | 212 | 20.9 | 38.6 | 0.00 | 0.00 | 0.00 | 6 | 1022.6 |
| 20260902205004 | 31 | 232 | 22.5 | 37.0 | 0.00 | 0.00 | 0.00 | 6 | 1022.7 |
| 20260902204503 | 31 | 244 | 24.1 | 37.0 | 0.00 | 0.00 | 0.00 | 6 | 1022.8 |
| 20260902204003 | 31 | 209 | 20.9 | 33.8 | 0.00 | 0.00 | 0.00 | 6 | 1022.9 |
| 20260902203503 | 31 | 231 | 20.9 | 40.2 | 0.00 | 0.00 | 0.00 | 6 | 1022.8 |
| 20260902203004 | 31 | 223 | 19.3 | 32.2 | 0.00 | 0.00 | 0.00 | 6 | 1022.9 |
| 20260902202503 | 31 | 227 | 19.3 | 32.2 | 0.00 | 0.00 | 0.00 | 6 | 1022.9 |
| 20260902201503 | 31 | 236 | 20.9 | 33.8 | 0.00 | 0.00 | 0.00 | 6 | 1023.0 |
| 20260902201003 | 31 | 217 | 22.5 | 37.0 | 0.00 | 0.00 | 0.00 | 6 | 1022.9 |
| 20260902200503 | 31 | 229 | 22.5 | 35.4 | 0.00 | 0.00 | 0.00 | 5 | 1023.0 |
| 20260902200003 | 31 | 232 | 20.9 | 35.4 | 0.00 | 0.00 | 0.00 | 6 | 1023.1 |
| 20260902195004 | 31 | 236 | 19.3 | 32.2 | 0.00 | 0.00 | 0.00 | 6 | 1023.0 |
| 20260902193503 | 31 | 247 | 17.7 | 32.2 | 0.00 | 0.00 | 0.00 | 6 | 1023.3 |
| 20260902193010 | 31 | 238 | 16.1 | 27.4 | 0.00 | 0.00 | 0.00 | 6 | 1023.3 |
| 20260902192503 | 31 | 240 | 19.3 | 29.0 | 0.00 | 0.00 | 0.00 | 6 | 1023.2 |
| 20260902192005 | 31 | 218 | 19.3 | 32.2 | 0.00 | 0.00 | 0.00 | 6 | 1023.3 |
| 20260902191506 | 31 | 241 | 17.7 | 29.0 | 0.00 | 0.00 | 0.00 | 6 | 1023.5 |
| 20260902190503 | 31 | 221 | 19.3 | 32.2 | 0.00 | 0.00 | 0.00 | 6 | 1023.5 |
| 20260902190005 | 31 | 237 | 19.3 | 29.0 | 0.00 | 0.00 | 0.00 | 6 | 1023.7 |
| 20260902185005 | 30 | 219 | 16.1 | 32.2 | 0.00 | 0.00 | 0.00 | 6 | 1023.8 |
| 20260902183505 | 30 | 159 | 8.0 | 16.1 | 0.00 | 0.00 | 0.00 | 8 | 1023.9 |
| 20260902183003 | 29 | 146 | 1.6 | 12.9 | 0.00 | 0.00 | 0.00 | 11 | 1023.9 |
| 20260902182520 | 29 | 160 | 3.2 | 19.3 | 0.00 | 0.00 | 0.00 | 10 | 1023.9 |
| 20260902182019 | 28 | 135 | 8.0 | 16.1 | 0.00 | 0.00 | 0.00 | 11 | 1024.1 |
| 20260902181504 | 28 | 111 | 1.6 | 4.8 | 0.00 | 0.00 | 0.00 | 13 | 1024.0 |
| 20260902181005 | 28 | 122 | 1.6 | 12.9 | 0.00 | 0.00 | 0.00 | 13 | 1024.1 |
| 20260902180503 | 27 | 99 | 1.6 | 9.7 | 0.00 | 0.00 | 0.00 | 13 | 1024.2 |
| 20260902174503 | 27 | 40 | 0.0 | 8.0 | 0.00 | 0.00 | 0.00 | 14 | 1024.2 |
| 20260902173003 | 26 | 30 | 1.6 | 8.0 | 0.00 | 0.00 | 0.00 | 15 | 1024.4 |
| 20260902164503 | 25 | 25 | 4.8 | 12.9 | 0.00 | 0.00 | 0.00 | 16 | 1024.2 |
| 20260902163504 | 25 | 21 | 3.2 | 14.5 | 0.00 | 0.00 | 0.00 | 17 | 1024.1 |
| 20260902160004 | 23 | 36 | 6.4 | 11.3 | 0.00 | 0.00 | 0.00 | 17 | 1023.9 |
| 20260902154503 | 23 | 20 | 4.8 | 11.3 | 0.00 | 0.00 | 0.00 | 18 | 1023.9 |
| 20260902154005 | 23 | 44 | 3.2 | 8.0 | 0.00 | 0.00 | 0.00 | 18 | 1024.0 |
| 20260902153503 | 23 | 35 | 1.6 | 4.8 | 0.00 | 0.00 | 0.00 | 18 | 1023.9 |
| 20260902150004 | 22 | 22 | 1.6 | 4.8 | 0.00 | 0.00 | 0.00 | 18 | 1023.7 |
| 20260902145004 | 22 | 342 | 0.0 | 3.2 | 0.00 | 0.00 | 0.00 | 19 | 1023.6 |
| 20260902144503 | 21 | 342 | 0.0 | 0.0 | 0.00 | 0.00 | 0.00 | 19 | 1023.6 |
| 20260902144004 | 21 | 342 | 0.0 | 0.0 | 0.00 | 0.00 | 0.00 | 19 | 1023.5 |
| 20260902143504 | 21 | 342 | 0.0 | 0.0 | 0.00 | 0.00 | 0.00 | 20 | 1023.5 |
| 20260902143003 | 20 | 342 | 0.0 | 0.0 | 0.00 | 0.00 | 0.00 | 20 | 1023.6 |
| 20260902142503 | 20 | 342 | 0.0 | 0.0 | 0.00 | 0.00 | 0.00 | 20 | 1023.5 |
| 20260902141529 | 19 | 341 | 0.0 | 3.2 | 0.00 | 0.00 | 0.00 | 20 | 1023.5 |
| 20260902141004 | 18 | 331 | 0.0 | 4.8 | 0.00 | 0.00 | 0.00 | 20 | 1023.3 |
| 20260902134004 | 18 | 271 | 3.2 | 4.8 | 0.00 | 0.00 | 0.00 | 21 | 1023.0 |
| 20260902133503 | 18 | 261 | 1.6 | 4.8 | 0.00 | 0.00 | 0.00 | 21 | 1022.9 |
| 20260902132503 | 18 | 267 | 3.2 | 11.3 | 0.00 | 0.00 | 0.00 | 23 | 1022.8 |
| 20260902132004 | 16 | 263 | 1.6 | 9.7 | 0.00 | 0.00 | 0.00 | 24 | 1022.8 |
| 20260902131503 | 16 | 218 | 0.0 | 4.8 | 0.00 | 0.00 | 0.00 | 24 | 1022.9 |
| 20260902131004 | 17 | 211 | 1.6 | 4.8 | 0.00 | 0.00 | 0.00 | 24 | 1022.9 |
| 20260902130004 | 16 | 230 | 1.6 | 4.8 | 0.00 | 0.00 | 0.00 | 24 | 1022.9 |
| 20260902125503 | 17 | 205 | 0.0 | 4.8 | 0.00 | 0.00 | 0.00 | 24 | 1022.9 |
| 20260902124504 | 17 | 223 | 1.6 | 4.8 | 0.00 | 0.00 | 0.00 | 24 | 1022.9 |
| 20260902123004 | 17 | 256 | 3.2 | 8.0 | 0.00 | 0.00 | 0.00 | 24 | 1022.9 |
| 20260902122503 | 17 | 240 | 1.6 | 8.0 | 0.00 | 0.00 | 0.00 | 24 | 1023.0 |